RH
66 50 41 43 47 52 59 66 69 70 72 73 74 69 62 60 55 43 29 23 23 22 21 21 18 18 17 16 13 12 19 20 15 12 11 8 9 8 9 11 10 13 20 49 44
76 69 60 43 40 47 56 63 64 70 73 73 76 74 67 61 58 37 26 22 21 20 21 18 16 15 17 16 14 16 20 17 12 10 11 9 9 8 11 11 10 12 16 20 30
97 80 73 65 48 40 47 58 65 66 72 72 73 75 71 64 48 23 25 23 22 20 22 18 15 14 17 14 15 15 19 14 12 11 11 11 10 9 10 12 9 11 16 16 21
100 100 90 78 69 53 44 50 61 70 70 79 75 76 70 66 43 26 24 23 21 20 21 17 16 18 18 18 14 17 14 14 13 12 12 13 11 11 11 10 8 8 11 15 20
97 100 100 99 82 74 60 50 55 69 67 73 77 80 71 51 41 28 24 22 24 24 18 16 17 17 19 16 14 15 14 13 12 12 12 12 13 12 11 9 8 8 10 11 12
78 90 99 99 100 90 77 64 53 67 77 77 76 84 72 68 34 27 27 25 24 21 19 17 16 15 17 18 17 14 14 14 13 13 12 13 13 12 11 9 9 9 10 10 11
69 67 80 99 100 100 94 79 63 68 80 80 82 86 66 55 35 29 28 28 24 22 19 17 16 16 16 20 16 16 19 16 15 14 14 12 15 14 10 9 10 9 10 10 11
62 82 77 80 96 100 100 96 81 69 88 94 95 85 78 47 47 44 40 36 27 26 19 19 20 19 18 17 19 22 20 24 17 14 13 14 19 12 11 10 11 12 12 12 16
61 60 70 76 75 97 100 100 91 79 96 93 96 81 69 41 48 43 39 34 32 30 28 26 24 26 21 25 28 24 30 24 19 14 13 14 17 12 9 10 12 12 13 13 21
65 60 62 76 81 82 98 100 99 94 99 99 85 78 60 52 37 40 39 39 29 27 30 28 28 32 29 27 36 28 26 24 23 15 13 15 16 13 12 12 13 14 14 14 18
68 57 62 72 89 92 97 100 100 100 99 90 76 59 31 40 34 35 36 33 34 31 37 31 38 38 31 27 23 21 22 21 16 14 14 16 16 14 12 14 15 13 13 15 20
83 67 47 66 78 82 100 97 80 66 93 86 64 57 47 35 36 33 30 35 41 44 32 33 45 30 25 23 24 24 26 25 19 15 16 16 17 14 13 12 13 13 14 16 25
86 85 80 59 73 88 95 95 87 77 90 66 75 62 50 40 44 34 30 29 35 38 31 36 31 25 26 25 25 24 27 26 25 18 16 18 19 18 15 14 12 12 12 14 26
83 84 84 78 68 65 84 89 80 94 99 86 76 68 48 41 45 31 26 28 32 36 30 28 24 22 25 25 23 28 20 21 23 24 29 18 31 22 19 18 15 14 14 20 26
83 84 82 74 51 57 82 85 88 100 98 73 60 46 43 50 33 32 27 28 35 31 29 31 27 28 26 23 22 25 20 20 22 25 27 25 28 22 16 17 17 16 18 25 27
82 80 81 78 81 64 50 72 99 100 96 81 42 53 58 50 47 28 32 27 26 29 28 28 19 21 22 19 19 20 22 24 26 29 43 34 32 29 21 18 18 20 20 26 27
80 81 82 72 63 61 51 89 99 98 91 82 51 44 60 60 54 47 44 40 41 47 41 26 24 18 17 21 20 22 30 45 51 48 45 26 28 28 21 18 18 24 27 29 30
83 82 79 73 69 56 71 99 97 83 96 58 42 38 62 56 58 53 54 50 36 35 36 40 38 22 17 22 26 28 30 51 60 52 44 33 42 27 18 15 15 24 28 32 32
87 84 83 80 70 62 91 97 90 96 75 58 38 48 61 57 54 58 56 55 45 36 46 40 37 21 20 21 24 34 37 29 45 43 56 47 36 26 22 22 27 28 32 35 35
96 88 78 73 76 73 98 96 92 76 65 47 50 62 70 62 58 62 60 46 44 38 34 40 53 27 22 21 25 28 27 50 52 92 76 53 42 36 32 30 32 34 38 38 33
97 98 70 71 77 96 95 92 73 53 64 69 51 80 51 54 53 60 54 44 41 40 38 41 57 50 29 30 34 35 40 38 47 68 68 60 41 26 30 27 34 37 39 36 31
95 98 62 67 97 97 94 73 65 48 49 76 66 54 48 45 55 55 54 50 35 40 44 40 53 75 51 31 23 31 39 40 85 95 72 67 53 29 29 29 32 37 39 34 28
96 94 55 69 96 96 71 71 75 61 48 55 86 66 46 42 54 48 49 37 31 38 47 42 86 98 76 56 36 37 37 39 42 58 71 81 70 29 29 30 32 38 38 29 27
98 98 92 87 74 70 81 66 73 69 56 42 67 72 64 46 44 53 50 41 39 37 66 54 85 76 75 56 51 52 50 48 47 80 68 68 48 39 33 33 32 35 32 27 25
100 96 72 95 96 77 65 52 57 73 60 55 53 78 84 60 55 58 52 53 46 77 71 68 90 78 53 73 54 41 47 46 58 57 73 56 46 38 37 33 32 31 26 23 23
98 90 59 59 60 87 69 69 60 57 75 67 79 64 82 74 54 68 59 59 62 78 81 75 81 69 73 64 80 88 64 38 49 56 52 54 48 31 34 34 32 29 25 25 24
58 41 57 57 63 76 82 65 53 49 58 74 67 69 88 80 53 44 49 52 55 72 83 85 86 83 94 63 77 98 85 60 39 33 35 51 39 26 37 37 36 33 28 26 23
Wind_Speed
29 29 29 28 27 25 25 23 21 19 18 18 19 19 21 25 31 24 19 14 7 5 8 10 13 15 16 15 17 17 10 13 18 19 11 10 6 10 4 7 8 7 12 27 18
31 30 31 30 29 28 26 26 23 22 20 18 18 19 20 24 30 29 27 14 12 7 8 15 12 13 12 16 13 13 12 18 21 9 6 5 6 12 8 12 13 6 5 8 16
33 33 32 32 32 31 29 27 25 23 22 19 17 17 19 20 14 9 15 13 11 11 11 18 11 11 15 15 16 16 16 19 22 11 6 10 6 6 9 12 15 14 15 12 9
19 31 35 34 34 33 31 30 27 26 21 21 17 15 15 13 6 4 9 10 10 10 13 15 12 12 13 16 17 19 17 18 19 18 5 11 14 14 15 15 15 4 12 14 12
20 17 23 36 35 35 33 32 28 28 24 20 17 12 8 11 19 12 7 12 9 9 13 13 13 13 16 16 15 18 17 18 14 16 14 10 15 15 15 11 16 10 5 7 7
29 25 20 20 35 36 34 34 30 28 26 20 16 10 11 20 18 17 15 12 15 17 17 16 12 13 14 19 17 18 17 13 15 20 12 16 16 17 18 16 16 13 10 12 9
29 31 30 21 20 34 36 34 31 29 26 21 16 10 17 21 13 12 12 12 17 20 18 18 18 15 9 11 16 16 19 17 17 17 18 15 19 21 19 18 17 14 13 11 11
24 25 29 31 28 18 34 34 31 28 25 19 13 12 15 17 29 35 27 20 15 17 17 16 12 15 17 12 18 14 16 17 20 22 21 19 19 20 21 21 14 15 8 9 7
26 25 25 28 29 24 20 34 30 26 23 17 9 11 19 12 27 28 24 27 23 20 17 13 13 15 16 14 13 15 17 20 20 21 20 20 15 22 8 17 14 13 10 8 11
26 24 24 23 23 26 20 31 30 22 23 16 15 9 16 16 22 27 29 26 19 14 18 17 9 14 15 14 16 16 20 19 19 22 17 14 15 19 11 12 13 14 12 13 10
27 25 22 21 18 15 17 8 5 7 13 11 11 21 6 31 18 24 22 23 25 21 19 21 15 18 25 25 25 20 21 21 18 18 17 16 13 18 14 15 15 12 13 10 11
29 30 25 21 20 18 13 7 17 6 7 23 28 26 38 34 18 17 20 19 22 27 25 21 25 23 25 24 26 25 24 22 20 18 9 14 17 16 17 14 18 20 16 14 16
31 28 25 22 19 15 18 22 26 26 6 20 33 36 25 25 30 21 22 23 25 26 27 28 25 25 27 27 26 24 24 20 22 18 18 20 21 17 16 20 19 16 14 17 19
33 29 24 20 14 21 20 19 27 28 6 9 15 27 35 27 33 29 27 22 21 28 26 26 24 26 27 30 26 25 23 22 21 18 17 18 16 20 22 25 26 19 14 15 17
35 31 27 22 17 14 5 12 23 13 7 10 29 12 18 42 13 35 40 30 29 24 17 29 23 29 30 26 24 25 21 20 21 20 18 24 16 14 17 16 11 18 13 16 16
38 36 31 29 30 29 28 25 15 10 8 9 11 28 24 34 41 12 36 30 27 27 30 29 22 24 25 22 20 20 21 18 15 12 19 20 19 19 17 18 17 17 14 16 18
42 38 34 30 23 21 25 3 9 12 12 10 14 29 31 26 33 33 27 32 27 28 32 25 32 27 24 25 21 22 14 10 12 14 19 16 19 20 15 21 24 21 17 17 16
44 39 38 37 29 23 15 8 12 19 11 13 21 25 31 25 32 33 30 27 33 31 12 25 26 31 23 26 20 21 20 9 16 14 15 11 18 21 16 6 19 26 21 18 16
43 40 36 38 31 26 9 17 13 4 19 20 22 26 25 25 16 27 36 32 30 33 27 18 31 17 29 14 18 14 24 16 16 13 11 10 18 3 2 9 17 22 21 19 16
39 34 33 38 34 23 12 26 13 10 17 30 26 21 29 33 25 27 27 31 28 31 28 22 11 23 25 20 24 24 16 12 10 8 14 12 17 11 11 14 19 20 20 17 15
34 10 25 41 34 9 17 18 30 27 21 21 30 23 28 32 28 29 27 17 34 28 27 26 14 18 15 30 24 19 18 15 10 12 9 8 9 2 8 18 19 18 18 17 14
15 14 30 46 16 9 17 33 23 32 28 15 10 22 28 30 33 27 26 27 19 33 31 27 16 18 23 20 30 26 26 24 8 5 12 10 4 4 6 10 16 18 17 15 13
13 12 28 39 17 14 24 26 27 34 28 29 10 19 27 24 24 27 25 19 13 24 21 21 6 5 8 6 12 29 27 27 22 9 15 11 3 2 10 11 13 16 16 14 13
9 10 7 14 20 26 21 27 34 28 33 33 16 18 26 22 18 24 23 13 14 10 14 15 7 11 9 5 11 17 17 21 20 14 13 17 10 9 10 14 15 16 17 15 12
6 8 13 18 22 32 29 23 30 32 31 22 29 25 25 17 22 19 19 14 13 17 9 12 11 13 11 7 4 18 19 21 27 24 18 15 21 15 12 11 16 16 14 14 15
9 7 16 16 26 24 28 27 30 31 15 36 24 27 28 18 20 25 25 20 16 13 18 15 11 17 17 19 12 8 17 23 26 27 26 22 20 12 11 9 11 16 17 16 15
8 11 15 13 24 20 26 32 31 33 27 30 27 19 20 22 18 17 20 22 15 24 19 14 5 12 14 15 3 8 27 23 19 23 21 23 19 13 15 16 17 18 17 16 13
Wind_Direction
261 259 258 256 255 256 258 261 264 267 274 286 295 303 310 317 313 306 266 264 191 234 220 251 223 235 233 250 246 253 267 262 260 255 230 117 171 175 242 291 214 169 69 171 157
264 262 260 258 255 256 256 258 260 266 272 278 290 302 311 320 314 291 268 221 218 205 225 229 226 229 238 236 242 234 248 252 262 334 352 112 191 226 187 231 253 171 110 133 157
266 264 263 260 258 255 254 255 257 259 268 273 283 296 311 321 300 296 173 200 189 198 246 281 263 277 239 251 244 239 241 266 289 320 300 308 227 260 249 245 234 198 179 174 167
273 271 265 263 260 257 254 252 253 257 257 270 276 290 304 309 277 129 173 183 179 211 248 254 247 248 249 254 245 253 253 261 282 297 266 257 276 239 227 246 257 268 162 167 169
296 289 273 267 262 260 257 254 248 251 252 257 271 281 310 243 249 253 204 195 209 240 245 243 245 244 252 255 257 252 249 257 273 278 281 272 270 271 260 251 264 268 233 200 229
290 293 291 274 268 261 258 255 250 247 249 251 256 261 246 254 264 270 223 223 239 240 244 252 256 254 278 277 280 286 271 272 272 267 243 253 251 254 249 251 243 243 233 237 204
288 287 286 288 276 265 258 255 250 245 243 247 250 245 253 238 254 261 236 252 249 248 258 249 250 258 249 258 272 286 277 275 259 258 263 250 244 243 245 233 226 229 229 231 235
288 290 283 284 286 280 263 255 250 242 238 242 245 252 255 249 247 259 265 264 252 273 252 263 289 269 255 258 281 274 268 258 254 241 242 228 254 255 229 224 195 230 185 212 120
285 285 292 287 286 287 277 260 247 238 226 229 231 224 256 243 229 232 231 242 241 245 261 257 265 260 248 241 255 246 252 251 256 248 254 210 240 258 233 193 190 204 186 185 138
278 281 285 293 296 276 301 254 235 222 207 206 233 234 251 241 225 228 229 234 241 233 229 226 230 232 232 231 228 234 241 235 250 273 202 217 214 258 170 193 214 175 202 190 161
271 280 282 284 288 274 289 217 176 186 193 206 174 224 286 217 228 228 215 217 222 237 232 213 217 218 223 224 239 253 270 268 257 227 193 213 244 254 216 186 198 224 203 192 148
262 268 272 273 281 276 268 225 218 162 211 216 243 220 243 269 219 213 214 206 201 215 217 219 224 223 232 235 234 239 253 262 274 274 259 232 235 252 268 240 201 205 187 184 134
258 255 260 268 272 276 251 251 231 220 245 209 214 230 227 236 247 243 209 212 208 216 211 219 221 218 233 238 241 240 239 247 252 258 261 252 255 242 250 252 255 234 201 188 148
252 250 248 260 275 255 247 249 232 210 229 216 212 234 223 227 254 226 210 208 224 221 226 233 231 234 219 232 238 236 241 238 248 250 246 248 249 241 232 235 232 228 204 142 144
244 242 241 237 254 256 287 239 220 181 235 181 213 188 191 204 173 207 218 200 218 215 210 221 213 222 235 216 224 251 244 246 235 247 257 250 265 257 254 242 232 190 164 146 150
239 236 238 238 242 247 262 287 206 223 225 210 186 203 194 203 214 230 201 229 212 224 234 233 234 229 236 234 235 234 242 250 262 249 243 245 255 254 248 240 204 189 175 151 144
234 231 227 229 236 231 241 306 233 226 137 210 201 180 193 195 202 220 205 210 205 210 230 230 227 242 234 236 237 235 216 226 231 234 248 243 250 249 249 252 258 170 159 152 149
228 227 225 224 227 239 221 218 231 210 180 220 205 188 191 191 200 204 213 219 217 214 225 224 232 216 231 221 226 218 214 210 223 233 249 266 258 255 279 312 233 155 157 145 148
221 220 222 219 214 219 230 233 216 176 187 193 203 180 189 196 198 196 208 213 218 207 217 214 232 219 219 202 210 209 218 222 251 280 285 250 275 69 16 111 121 144 149 153 150
212 209 218 211 203 205 230 233 223 197 207 211 199 192 184 189 195 193 193 224 218 224 218 236 269 219 220 211 210 219 210 200 209 217 239 236 238 258 182 165 156 157 158 153 153
205 206 214 198 190 203 217 237 221 233 225 224 225 187 199 186 190 193 194 199 207 204 219 229 233 249 240 212 198 205 226 199 218 217 227 250 245 302 296 189 167 161 152 156 161
200 209 192 178 196 211 211 218 234 221 225 237 271 217 216 183 188 194 203 196 190 205 208 203 216 237 249 265 202 200 213 218 214 187 229 255 227 56 61 150 158 154 155 159 160
197 199 174 176 199 213 209 225 244 230 233 227 249 243 238 202 194 195 198 193 169 190 211 187 146 172 243 263 257 207 205 213 211 222 223 204 202 170 166 168 165 158 161 161 171
173 172 164 186 203 205 205 214 228 240 245 238 225 240 252 208 190 192 192 191 185 199 124 149 167 206 203 177 183 216 207 219 215 216 212 223 207 184 186 175 178 170 168 164 167
165 179 172 178 194 205 204 208 219 228 234 253 225 234 251 208 189 190 184 149 184 129 128 158 198 209 231 78 291 210 212 214 219 215 211 223 239 237 185 202 186 171 152 172 184
164 162 179 168 187 196 209 212 220 230 226 220 231 214 240 225 198 183 175 179 175 158 162 190 200 202 204 211 181 223 264 223 213 225 240 239 243 246 146 217 175 162 176 190 195
153 144 154 170 184 192 209 212 221 223 252 231 237 221 231 239 228 202 192 179 168 176 182 192 145 175 216 211 171 230 213 244 236 232 229 222 228 223 188 202 210 179 181 199 190